Regional Weather Roundup
Issued by NWS Lake Charles, LA

Home | Current Version | Previous Version | Text Only | Print | Product List | Glossary On
Versions: 1 2 3 4 5 6 7 8 9 10 11 12 13 14 15 16 17 18 19 20 21 22 23 24 25 26 27 28 29 30 31 32 33 34 35 36 37 38 39 40 41 42 43 44 45 46 47 48 49 50
000
ASUS44 KLCH 300710
RWRLCH
RWRLCH
REGIONAL WEATHER ROUNDUP
NATIONAL WEATHER SERVICE LAKE CHARLES LA
200 AM CDT MON MAR 30 2015

Note: "fair" indicates few or no clouds below 12,000 feet with no
significant weather and/or obstructions to visibility.


ACROSS SOUTHEAST TEXAS

CITY           SKY/WX    TMP DP  RH WIND       PRES   REMARKS
BEAUMONT       CLEAR     64  62  93 SW5       30.16F
BEAUMONT CITY  PTSUNNY   63  62  97 S3        30.17F
ORANGE         SUNNY     66  60  81 SW6       30.18F
JASPER         MOCLDY    65  63  94 CALM      30.18S
$$

ACROSS CENTRAL LOUISIANA

CITY           SKY/WX    TMP DP  RH WIND       PRES   REMARKS
LEESVILLE      CLOUDY    63  61  93 W1        30.17R
FULLERTON      CLOUDY    64  60  87 CALM      30.16R
ALEXANDRIA INT CLEAR     60  58  92 CALM      30.17S
ESLER FIELD    PTCLDY    60  58  92 CALM      30.19R
DERIDDER         N/A     63  61  95 CALM      30.18F
OAKDALE        PTSUNNY   57  56  95 CALM      30.18F FOG
OPELOUSAS      CLOUDY    63  62  97 CALM      30.19R
$$

ACROSS SOUTHWEST AND SOUTH CENTRAL LOUISIANA

CITY           SKY/WX    TMP DP  RH WIND       PRES   REMARKS
SULPHUR        PTSUNNY   66  65  96 SW3       30.18F
LAKE CHARLES   MOCLDY    66  64  93 SW3       30.17R
CHENNAULT INT  MOCLDY    62  61  98 CALM      30.18S
CAMERON PHI    NOT AVBL
DEQUINCY       CLOUDY    59  59 100 CALM      30.18R
JENNINGS       CLOUDY    65  64  99 W3        30.18R
LAFAYETTE      MOCLDY    66  63  90 W3        30.18R
NEW IBERIA     CLEAR     66  62  87 S8        30.17F
ABBEVILLE        N/A     64  63  96 S6        30.17S
PATTERSON      CLEAR     63  61  94 S7        30.18F
SALT POINT       N/A     66  63  90 VRB3      30.16F
$$

SELECTED SITES ACROSS THE REGION

CITY           SKY/WX    TMP DP  RH WIND       PRES   REMARKS
HOUSTON BUSH   PTCLDY    66  63  90 S7        30.14F
HOUSTON HOBBY  PTCLDY    64  62  93 CALM      30.15F
GALVESTON      CLEAR     67  65  93 S8        30.17S
COLLEGE STAT   CLEAR     66  61  84 S10       30.11F
CONROE         CLEAR     65  61  87 S7        30.14F
HUNTSVILLE     CLEAR     66  62  87 S9G20     30.13S
LUFKIN         MOCLDY    62  58  86 CALM      30.15S
SHREVEPORT     PTCLDY    66  60  81 S8        30.13S
MONROE         CLEAR     65  60  84 SW14G23   30.14F
NATCHEZ MS     MOCLDY    64  59  82 SW5       30.20S
BATON ROUGE    PTCLDY    65  60  84 S5        30.19R
N.O. INTL ARPT CLEAR     64  61  90 S7        30.17F
SLIDELL        CLEAR     62  61  96 S3        30.17F
$$

MARINE REPORTS

STATION/POSITION TIME  TEMP    WIND        PRES    VSBY  WAVE
                       AIR SEA DIR/SP/G                  HT/PER
                 (UTC) (F)     (DEG/KT/KT) (MB)    (MI)  (FT/S)
BUOY 30 S HIGH I 0650   68 66  190/ 10/ 12 1020.8R         3/ 7
SEA RIM ST PARK  0700   67     210/  7/  8 1022.0R
PORT ARTHUR      0606      68  230/  7/ 10 1021.9R
SABINE PASS N    0600   67 67  200/  8/ 12 1021.3S
TEXAS POINT      NOT AVBL
CALCASIEU PASS   0600   67 67  200/ 10/ 11   N/A
LK CHARLES BEACH 0606   67 70              1022.0R
MARSH ISLAND     NOT AVBL
FRESH WATER LOCK 0606   69 70  160/  9/ 11 1021.6F
AMERADA PASS     0618   67 60  180/  3/  5 1021.8F
$$


USA.gov is the U.S. government's official web portal to all federal, state and local government web resources and services.